Voltar ao catálogo

STARLINK-30457

AtivoComunicaçõesVLEO
NORAD 57900·PAYLOAD·🇺🇸 United States

Lançado Sep 20, 2023 de Cape Canaveral Space Force Station

Loading…

Próximas Passagens (próximas 24 horas)

TLE

AtualizadoSource: CelesTrak SupGP

Época: Sep 15, 2026, 02:21 UTC

1 57900C 23146K   26258.09840278  .00029511  00000+0  10691-2 0  2582
2 57900  43.0031 324.8620 0001872 260.2927 323.4211 15.27557147    16

Acompanhe STARLINK-30457 em tempo real com AllMySat

Download on the App Store